GIBOR2 LLRD-LLRD

Flight info

Callsign GIBOR2
Flight time 0h 46m
Altitude 41000
Route SID ATLIT MERHAV 4
Aircraft F16/L-SDFGHRTY/C

Departure

Time 2026-04-29 16:11
Airport Ramat David Air Base (LLRD)

Arrival

Time 2026-04-29 16:57
Airport Ramat David Air Base (LLRD)
Time Latitude Longitude Altitude Speed Heading
2026-04-29 16:10 32.63883 34.87665 6778 ft 510 kts 205°
2026-04-29 16:11 32.60456 34.86000 8036 ft 531 kts 197°
2026-04-29 16:11 32.56964 34.86142 9541 ft 514 kts 160°
2026-04-29 16:11 32.53963 34.88347 8978 ft 506 kts 140°
2026-04-29 16:11 32.51519 34.91109 8809 ft 464 kts 135°
2026-04-29 16:12 32.49298 34.93609 9264 ft 423 kts 141°
2026-04-29 16:12 32.47776 34.95087 9814 ft 411 kts 144°
2026-04-29 16:12 32.44694 34.97479 11643 ft 405 kts 159°
2026-04-29 16:12 32.41991 34.98654 12129 ft 416 kts 162°
2026-04-29 16:13 32.39139 34.99730 12048 ft 461 kts 164°
2026-04-29 16:13 32.36462 35.00805 11894 ft 393 kts 160°
2026-04-29 16:13 32.33982 35.02362 11758 ft 416 kts 148°
2026-04-29 16:13 32.31317 35.04105 11397 ft 481 kts 153°
2026-04-29 16:14 32.28542 35.06363 11884 ft 468 kts 140°
2026-04-29 16:14 32.26357 35.08703 13071 ft 410 kts 136°
2026-04-29 16:14 32.24472 35.11041 14286 ft 373 kts 133°
2026-04-29 16:14 32.22778 35.13315 15363 ft 386 kts 127°
2026-04-29 16:15 32.21324 35.16238 16693 ft 436 kts 111°
2026-04-29 16:15 32.20250 35.19820 18180 ft 473 kts 105°
2026-04-29 16:15 32.19470 35.23453 19435 ft 461 kts 101°
2026-04-29 16:15 32.18914 35.27079 20713 ft 458 kts 98°
2026-04-29 16:16 32.18338 35.30773 22040 ft 433 kts 100°
2026-04-29 16:16 32.17741 35.34358 23350 ft 461 kts 98°
2026-04-29 16:16 32.18039 35.37774 24248 ft 399 kts 63°
2026-04-29 16:16 32.19785 35.40242 25089 ft 402 kts 27°
2026-04-29 16:17 32.22415 35.41746 26014 ft 440 kts 13°
2026-04-29 16:17 32.25525 35.42271 27428 ft 468 kts 358°
2026-04-29 16:17 32.28991 35.42531 28607 ft 525 kts
2026-04-29 16:17 32.32782 35.42754 30320 ft 574 kts
2026-04-29 16:18 32.36717 35.43149 31746 ft 518 kts
2026-04-29 16:18 32.40162 35.43564 32809 ft 492 kts
2026-04-29 16:18 32.43675 35.44024 32540 ft 523 kts 360°
2026-04-29 16:18 32.47395 35.44204 32823 ft 524 kts 356°
2026-04-29 16:19 32.50968 35.43870 33341 ft 499 kts 341°
2026-04-29 16:19 32.54139 35.42425 33618 ft 485 kts 324°
2026-04-29 16:19 32.56776 35.39741 33863 ft 523 kts 303°
2026-04-29 16:19 32.58480 35.36199 33928 ft 489 kts 288°
2026-04-29 16:20 32.59051 35.32237 33950 ft 489 kts 265°
2026-04-29 16:20 32.58446 35.28329 33964 ft 479 kts 249°
2026-04-29 16:20 32.56811 35.25213 33741 ft 439 kts 234°
2026-04-29 16:20 32.54353 35.22933 34006 ft 467 kts 207°
2026-04-29 16:21 32.51212 35.21836 34000 ft 477 kts 187°
2026-04-29 16:21 32.47898 35.22073 33966 ft 482 kts 167°
2026-04-29 16:21 32.44600 35.23056 33984 ft 494 kts 173°
2026-04-29 16:21 32.41212 35.23701 34004 ft 479 kts 180°
2026-04-29 16:22 32.37889 35.24050 33997 ft 481 kts 181°
2026-04-29 16:22 32.31204 35.24381 33996 ft 480 kts 186°
2026-04-29 16:23 32.24569 35.24383 33981 ft 475 kts 183°
2026-04-29 16:23 32.21301 35.24863 33947 ft 482 kts 168°
2026-04-29 16:23 32.18236 35.26574 33884 ft 491 kts 153°
2026-04-29 16:23 32.15754 35.29274 34028 ft 492 kts 129°
2026-04-29 16:24 32.13983 35.32933 34007 ft 559 kts 107°
2026-04-29 16:24 32.13279 35.37327 33989 ft 531 kts 86°
2026-04-29 16:24 32.13700 35.41498 33932 ft 496 kts 72°
2026-04-29 16:24 32.14932 35.45159 34282 ft 470 kts 39°
2026-04-29 16:25 32.17232 35.48147 33898 ft 502 kts 27°
2026-04-29 16:25 32.20268 35.50097 34026 ft 502 kts 14°
2026-04-29 16:25 32.23604 35.50713 34039 ft 469 kts 353°
2026-04-29 16:25 32.26676 35.49910 34044 ft 450 kts 328°
2026-04-29 16:26 32.29490 35.48349 34024 ft 444 kts 330°
2026-04-29 16:26 32.35275 35.46100 34029 ft 432 kts 333°
2026-04-29 16:26 32.37930 35.44482 33928 ft 432 kts 321°
2026-04-29 16:27 32.40412 35.42456 33911 ft 440 kts 323°
2026-04-29 16:27 32.45632 35.38646 34037 ft 432 kts 327°
2026-04-29 16:28 32.51172 35.35736 34002 ft 442 kts 336°
2026-04-29 16:28 32.57009 35.33357 34005 ft 444 kts 340°
2026-04-29 16:29 32.62926 35.31304 34009 ft 440 kts 340°
2026-04-29 16:29 32.65784 35.30043 34039 ft 432 kts 318°
2026-04-29 16:29 32.68014 35.27669 33993 ft 434 kts 301°
2026-04-29 16:29 32.69270 35.24520 33985 ft 427 kts 282°
2026-04-29 16:30 32.69387 35.21067 34037 ft 416 kts 265°
2026-04-29 16:30 32.68433 35.17857 34183 ft 417 kts 243°
2026-04-29 16:30 32.66599 35.15073 33941 ft 453 kts 216°
2026-04-29 16:30 32.63826 35.13038 33906 ft 473 kts 212°
2026-04-29 16:31 32.60828 35.11451 33900 ft 480 kts 204°
2026-04-29 16:31 32.57551 35.10302 33071 ft 506 kts 199°
2026-04-29 16:31 32.54279 35.09479 35632 ft 484 kts 196°
2026-04-29 16:31 32.50992 35.08771 32313 ft 510 kts 194°
2026-04-29 16:32 32.47397 35.08717 33686 ft 468 kts 167°
2026-04-29 16:32 32.45295 35.09270 35733 ft 439 kts 174°
2026-04-29 16:32 32.41401 35.10001 33445 ft 456 kts 171°
2026-04-29 16:32 32.38254 35.10786 33784 ft 484 kts 172°
2026-04-29 16:33 32.31241 35.12712 33970 ft 533 kts 171°
2026-04-29 16:33 32.27817 35.13940 34003 ft 494 kts 159°
2026-04-29 16:33 32.24982 35.16215 33905 ft 496 kts 141°
2026-04-29 16:34 32.22878 35.19396 33987 ft 496 kts 118°
2026-04-29 16:34 32.21628 35.23244 34036 ft 512 kts 98°
2026-04-29 16:34 32.21452 35.27488 34031 ft 520 kts 79°
2026-04-29 16:34 32.22451 35.31588 33987 ft 544 kts 58°
2026-04-29 16:35 32.24600 35.35158 34049 ft 524 kts 38°
2026-04-29 16:35 32.27360 35.37783 34041 ft 500 kts 24°
2026-04-29 16:35 32.29258 35.39090 33929 ft 465 kts 23°
2026-04-29 16:35 32.33156 35.41174 33955 ft 451 kts 17°
2026-04-29 16:36 32.35101 35.42261 33905 ft 474 kts 17°
2026-04-29 16:36 32.38263 35.43278 33972 ft 472 kts
2026-04-29 16:36 32.44718 35.43496 32402 ft 463 kts 351°
2026-04-29 16:37 32.48011 35.43251 29761 ft 496 kts 353°
2026-04-29 16:37 32.51358 35.42788 26698 ft 462 kts 330°
2026-04-29 16:37 32.53136 35.39816 23252 ft 485 kts 269°
2026-04-29 16:37 32.52491 35.37334 22475 ft 484 kts 229°
2026-04-29 16:38 32.48275 35.36206 22304 ft 514 kts 179°
2026-04-29 16:38 32.44897 35.36426 22263 ft 464 kts 178°
2026-04-29 16:38 32.41563 35.36676 22181 ft 507 kts 177°
2026-04-29 16:38 32.38790 35.39139 21839 ft 544 kts 95°
2026-04-29 16:39 32.39320 35.43010 20239 ft 503 kts 60°
2026-04-29 16:39 32.41963 35.46011 19345 ft 493 kts 32°
2026-04-29 16:39 32.44429 35.47841 18217 ft 355 kts 28°
2026-04-29 16:39 32.46441 35.49103 17662 ft 307 kts 18°
2026-04-29 16:40 32.48395 35.49339 18217 ft 280 kts 328°
2026-04-29 16:40 32.50215 35.47847 18103 ft 361 kts 319°
2026-04-29 16:40 32.52171 35.45643 18087 ft 389 kts 313°
2026-04-29 16:40 32.53903 35.43368 17878 ft 367 kts 310°
2026-04-29 16:41 32.55562 35.40824 17807 ft 419 kts 301°
2026-04-29 16:41 32.56848 35.37517 17956 ft 458 kts 290°
2026-04-29 16:41 32.57648 35.33726 17456 ft 481 kts 264°
2026-04-29 16:41 32.55698 35.31203 16429 ft 420 kts 212°
2026-04-29 16:42 32.53081 35.30303 18138 ft 384 kts 162°
2026-04-29 16:42 32.50660 35.32004 18891 ft 452 kts 138°
2026-04-29 16:42 32.48442 35.34955 19260 ft 513 kts 124°
2026-04-29 16:42 32.46808 35.39044 19513 ft 588 kts 97°
2026-04-29 16:43 32.47756 35.43940 19911 ft 673 kts 48°
2026-04-29 16:43 32.51701 35.46126 19713 ft 629 kts 340°
2026-04-29 16:43 32.55105 35.43192 18559 ft 604 kts 298°
2026-04-29 16:43 32.56052 35.38656 18797 ft 537 kts 285°
2026-04-29 16:44 32.57386 35.34686 18798 ft 503 kts 296°
2026-04-29 16:44 32.58860 35.31155 19035 ft 444 kts 311°
2026-04-29 16:44 32.61345 35.30278 18885 ft 393 kts 24°
2026-04-29 16:44 32.63614 35.32268 18755 ft 443 kts 45°
2026-04-29 16:45 32.65403 35.35620 18695 ft 520 kts 64°
2026-04-29 16:45 32.65611 35.39728 18862 ft 503 kts 120°
2026-04-29 16:45 32.62805 35.40419 18926 ft 442 kts 239°
2026-04-29 16:45 32.61788 35.37254 18898 ft 411 kts 273°
2026-04-29 16:46 32.62732 35.34283 19108 ft 383 kts 325°
2026-04-29 16:46 32.65215 35.34258 18921 ft 410 kts 45°
2026-04-29 16:46 32.65978 35.37491 18717 ft 427 kts 120°
2026-04-29 16:46 32.63696 35.38381 18482 ft 362 kts 235°
2026-04-29 16:47 32.63976 35.36211 18079 ft 331 kts 13°
2026-04-29 16:47 32.65907 35.37585 18594 ft 355 kts 52°
2026-04-29 16:47 32.66536 35.40514 18715 ft 416 kts 133°
2026-04-29 16:47 32.64055 35.40702 18573 ft 416 kts 243°
2026-04-29 16:48 32.62781 35.37271 17936 ft 508 kts 235°
2026-04-29 16:48 32.59562 35.34675 17106 ft 625 kts 206°
2026-04-29 16:48 32.55196 35.32456 16074 ft 746 kts 200°
2026-04-29 16:48 32.50074 35.30058 15194 ft 827 kts 205°
2026-04-29 16:49 32.45593 35.27653 14821 ft 609 kts 203°
2026-04-29 16:49 32.41590 35.26951 14240 ft 566 kts 179°
2026-04-29 16:49 32.38119 35.28372 14677 ft 528 kts 129°
2026-04-29 16:49 32.36072 35.32180 14691 ft 558 kts 103°
2026-04-29 16:50 32.38316 35.34770 15031 ft 541 kts
2026-04-29 16:50 32.42114 35.35418 14823 ft 532 kts
2026-04-29 16:50 32.45532 35.36063 14743 ft 458 kts
2026-04-29 16:50 32.48485 35.36433 14623 ft 404 kts
2026-04-29 16:51 32.50195 35.38443 14263 ft 375 kts 90°
2026-04-29 16:51 32.49434 35.41261 13647 ft 340 kts 153°
2026-04-29 16:51 32.47804 35.40794 13550 ft 244 kts 293°
2026-04-29 16:51 32.48801 35.39304 12772 ft 278 kts 322°
2026-04-29 16:52 32.50479 35.37770 13659 ft 329 kts 318°
2026-04-29 16:52 32.52235 35.35781 14751 ft 354 kts 312°
2026-04-29 16:52 32.53948 35.33585 14910 ft 372 kts 314°
2026-04-29 16:52 32.55819 35.31383 14951 ft 389 kts 315°
2026-04-29 16:53 32.57848 35.29027 14045 ft 434 kts 315°
2026-04-29 16:53 32.60115 35.26507 11658 ft 439 kts 316°
2026-04-29 16:53 32.62332 35.24091 9259 ft 431 kts 315°
2026-04-29 16:53 32.64199 35.21989 7867 ft 296 kts 316°
2026-04-29 16:54 32.65625 35.20447 7651 ft 272 kts 315°
2026-04-29 16:54 32.66964 35.18780 6766 ft 285 kts 310°
2026-04-29 16:54 32.67860 35.16769 5907 ft 273 kts 268°
2026-04-29 16:54 32.66953 35.14941 4862 ft 290 kts 204°
2026-04-29 16:55 32.64912 35.14293 4005 ft 289 kts 179°
2026-04-29 16:55 32.62882 35.14842 3034 ft 316 kts 162°
2026-04-29 16:55 32.61279 35.16337 2784 ft 266 kts 124°
2026-04-29 16:55 32.60679 35.18396 2333 ft 274 kts 87°
2026-04-29 16:56 32.61160 35.20572 2636 ft 277 kts 49°
2026-04-29 16:56 32.62801 35.21547 2332 ft 264 kts 347°
2026-04-29 16:56 32.64193 35.20582 650 ft 223 kts 317°
2026-04-29 16:56 32.65256 35.19598 260 ft 180 kts 323°
2026-04-29 16:57 32.66179 35.18813 159 ft 139 kts 323°
2026-04-29 16:57 32.66726 35.18337 152 ft 76 kts 326°
2026-04-29 16:57 32.67057 35.18068 147 ft 53 kts 324°
2026-04-29 16:57 32.67340 35.17829 143 ft 46 kts 325°
2026-04-29 16:58 32.67495 35.17671 144 ft 11 kts 259°
2026-04-29 16:58 32.67423 35.17604 142 ft 17 kts 144°
2026-04-29 16:58 32.67278 35.17733 143 ft 34 kts 144°
2026-04-29 16:58 32.67080 35.17900 145 ft 39 kts 141°
2026-04-29 16:59 32.66827 35.18120 149 ft 45 kts 145°
2026-04-29 16:59 32.66587 35.18317 151 ft 40 kts 146°
2026-04-29 16:59 32.66372 35.18499 154 ft 36 kts 145°
2026-04-29 16:59 32.66180 35.18662 158 ft 32 kts 144°
2026-04-29 17:00 32.66013 35.18804 162 ft 28 kts 146°
2026-04-29 17:00 32.65865 35.18926 166 ft 24 kts 145°
2026-04-29 17:00 32.65766 35.19005 168 ft 12 kts 163°
2026-04-29 17:00 32.65709 35.18958 169 ft 13 kts 261°
2026-04-29 17:01 32.65738 35.18892 169 ft 0 kts 314°
2026-04-29 17:01 32.65741 35.18889 169 ft 0 kts 324°